STARLINK-34206, 66098

Orbit data source: Space-Track

STARLINK-34206, 66098 is a payload satellite owned by SpaceX/Seattle (US) in LEO that was launched on Sun, 19 Oct 2025 UTC via an FALCON 9 launch vehicle from the Air Force Western Test Range (AFWTR). Payload-class satellites include a variety of spacecraft equipped with specific instruments for various scientific and technological missions. These include communications satellites like Starlink; space stations such as the ISS; scientific satellites like the Hubble; Earth observation satellites from companies like Planet Labs, Umbra, and HawkEye 360; GPS; miniature CubeSats for education and research; and military/defense satellites.

Loading next visibility...
Identifier
66098, 2025-236N
Orbit
LEO
Country
Flag of USUS
Related business
Manufacturer
SpaceX/Seattle
Mission
Operational Commercial Communications
Bus & Motor
STARLINK V2MO, Unknown motor
Mass
575 kg wet, ~530 kg dry
Launch date (UTC)
2025-10-19 (6 months ago)
Launch vehicle
FALCON 9
Launch site
Air Force Western Test Range (AFWTR)
Object type
Payload
Rocket body
Debris
Shape & HBR
Box + 2 Pan, 17.7 m
Radar Cross Section
36.964 m²

Expand to show TLE details & history
Last TLE update: 14 hours ago

TLE from 14 hours ago
0 STARLINK-34206
1 66098U 25236N   26095.09545560  .00024723  00000-0  84526-3 0  9999
2 66098  53.1600 341.4900 0000863  86.2277 273.8823 15.30153876 26972
Epoch: 2026-04-05T02:17Z
TLE epoch observation values (Epoch: 2026-04-05T02:17:27.363Z)
Latitude
0.00001°
Longitude
113.7202°
Altitude
476.212 km
Speed
7.629 km/s
True Right ascension
22h 45m 57s
True Declination
0° 00' 00"
Sunlit
Object was in daylight at epoch
Visualization orbit readout
Latitude
Unknown
Longitude
Unknown
Altitude
Unknown
Speed
Unknown
Apparent Right ascension
Unknown
Apparent Declination
Unknown
Sunlit
N/A
Visualization observer readout
Local Sidereal Time
21:54:13
Azimuth
Unknown
Elevation
Unknown
Doppler factor
Unknown
Orbital elements
Apogee altitude
476.201 km
Perigee altitude
475.018 km
Semi-major axis
6,853.746 km
Eccentricity
0.00009
Inclination
53.16°
RAAN
341.49°
Arg. of periapsis
86.2277°
True anomaly
273.87243°
Mean anomaly
273.8823°
Eccentric anomaly
273.87737°
Mean motion
3.82517 °/min
Orbital period
94.11 mins
BSTAR
0.00084526
Loading maneuver chart data...
Computing Atmospheric mass density...
Loading historical data...
Loading historical data...
Loading historical data...
Loading historical data...
Loading historical data...
Loading historical data...
Loading historical data...

Documentation

Showing up to 5 results
|